EW9994 Weather Reports


time (UTC)temp
C
wind
direction
speed
KPH
gust
KPH
rain 1hr
cm
rain 24hr
cm
rain mn
cm
humidity
%
barometer
mb
20180219041904 5 27 11.3 24.1 0.00 0.76 0.00 67 1016.0
20180219041403 5 328 11.3 33.8 0.00 0.81 0.00 68 1015.9
20180219040904 5 61 8.0 25.7 0.00 0.89 0.00 68 1016.0
20180219040404 5 358 14.5 22.5 0.00 0.94 0.00 68 1016.0
20180219034904 5 243 4.8 12.9 0.00 1.02 0.00 67 1015.9
20180219033404 5 331 12.9 29.0 0.00 1.04 0.00 67 1015.9
20180219031904 5 43 16.1 29.0 0.00 1.09 0.00 68 1015.9
20180219030905 5 348 17.7 33.8 0.00 1.14 0.00 68 1015.9
20180219024903 6 254 8.0 25.7 0.00 1.22 0.00 67 1015.9
20180219024403 5 353 19.3 40.2 0.00 1.24 0.00 67 1015.9
20180219023904 5 359 19.3 38.6 0.00 1.27 0.00 67 1015.8
20180219023403 6 8 22.5 32.2 0.00 1.27 0.00 67 1015.8
20180219021904 6 314 9.7 29.0 0.00 1.27 0.00 67 1015.9
20180219021404 6 71 11.3 25.7 0.00 1.32 0.00 66 1015.8
20180219020904 6 344 16.1 27.4 0.00 1.37 0.00 66 1015.8
20180219014904 6 163 6.4 11.3 0.00 1.40 0.00 65 1016.1
20180219014404 6 293 8.0 12.9 0.00 1.40 0.00 65 1016.2
20180219013903 6 192 8.0 12.9 0.00 1.40 0.00 65 1016.1
20180219013403 6 224 4.8 16.1 0.00 1.40 0.00 64 1016.1
20180219011904 6 303 9.7 22.5 0.00 1.42 0.00 64 1016.2
20180219010904 6 261 9.7 14.5 0.00 1.42 0.00 63 1016.3
20180219004904 6 249 9.7 14.5 0.00 1.45 0.00 64 1016.5
20180219004404 6 270 8.0 16.1 0.00 1.45 0.00 65 1016.5
20180219003904 6 272 9.7 16.1 0.00 1.45 0.00 65 1016.5
20180219003404 6 267 6.4 27.4 0.00 1.45 0.00 64 1016.5
20180219001903 6 288 9.7 22.5 0.00 1.45 0.00 65 1016.7
20180219001403 6 252 9.7 16.1 0.00 1.47 0.00 66 1016.7
20180219000904 6 267 6.4 11.3 0.00 1.47 0.00 66 1016.6
20180218234904 6 288 8.0 33.8 0.00 1.50 0.00 68 1016.7
20180218234404 6 243 8.0 24.1 0.00 1.50 0.00 69 1016.6
20180218233904 6 256 11.3 25.7 0.00 1.50 0.00 68 1016.7
20180218233404 6 302 11.3 24.1 0.00 1.52 0.00 69 1016.7
20180218230903 6 260 11.3 19.3 0.00 1.55 0.00 67 1017.1
20180218230404 6 285 9.7 19.3 0.00 1.55 0.00 68 1017.0
20180218224903 6 308 9.7 22.5 0.00 1.55 1.45 67 1017.2
20180218224404 6 311 11.3 22.5 0.00 1.57 1.45 69 1017.1
20180218223904 6 277 11.3 25.7 0.00 1.57 1.45 68 1017.2
20180218221904 6 273 6.4 22.5 0.00 1.60 1.45 66 1017.2
20180218221403 6 320 9.7 16.1 0.00 1.60 1.45 66 1017.1
20180218220903 6 297 19.3 27.4 0.00 1.60 1.45 65 1017.0
20180218214904 6 274 6.4 20.9 0.00 1.63 1.45 66 1016.9
20180218214404 6 276 9.7 20.9 0.00 1.63 1.45 66 1016.9
20180218213904 6 277 6.4 14.5 0.00 1.65 1.45 67 1016.9
20180218213404 6 213 4.8 16.1 0.00 1.65 1.45 66 1016.9
20180218211905 6 182 1.6 4.8 0.00 1.65 1.45 66 1017.0
20180218211403 6 268 3.2 11.3 0.00 1.65 1.45 66 1017.0
20180218210904 6 290 8.0 16.1 0.00 1.65 1.45 66 1016.9
20180218210403 6 306 14.5 20.9 0.00 1.65 1.45 66 1017.1
20180218204904 6 277 9.7 16.1 0.00 1.65 1.45 66 1017.3
20180218204403 6 337 9.7 19.3 0.00 1.65 1.45 66 1017.5
20180218203904 6 299 11.3 20.9 0.00 1.65 1.45 66 1017.4
20180218201903 6 305 6.4 20.9 0.00 1.70 1.45 66 1017.4
20180218200403 6 249 8.0 19.3 0.00 1.73 1.45 67 1017.5
20180218194403 6 236 6.4 11.3 0.00 1.75 1.45 66 1017.3
20180218193903 6 190 11.3 32.2 0.00 1.78 1.45 66 1017.2
20180218193403 6 236 11.3 24.1 0.00 1.78 1.45 66 1017.2
20180218191903 6 235 14.5 25.7 0.00 1.80 1.45 67 1017.0
20180218191403 6 274 12.9 20.9 0.00 1.80 1.45 67 1017.0
20180218190903 6 33 11.3 38.6 0.00 1.80 1.45 67 1016.8
20180218184903 6 344 11.3 38.6 0.00 1.83 1.45 67 1016.6
20180218184403 6 160 8.0 35.4 0.00 1.83 1.45 67 1016.5
20180218183903 7 33 11.3 32.2 0.00 1.83 1.45 66 1016.5
20180218183403 7 21 25.7 46.7 0.00 1.83 1.45 66 1016.4
20180218181903 6 38 22.5 41.8 0.00 1.85 1.45 67 1016.1
20180218181404 6 36 35.4 57.9 0.00 1.88 1.45 67 1015.9
20180218180403 6 11 24.1 57.9 0.00 1.91 1.45 67 1015.7
20180218160406 7 24 25.7 57.9 0.00 1.98 1.45 66 1015.6
20180218154906 7 23 29.0 59.5 0.00 2.01 1.45 66 1015.8
20180218154406 7 357 22.5 51.5 0.00 2.03 1.45 66 1015.8
20180218153906 7 12 35.4 56.3 0.00 2.03 1.45 65 1015.9
20180218153406 7 350 20.9 49.9 0.00 2.03 1.45 66 1015.8
20180218151906 7 14 22.5 57.9 0.00 2.06 1.45 65 1015.5
20180218151406 7 30 20.9 45.1 0.00 2.08 1.45 65 1015.4
20180218150907 7 76 12.9 41.8 0.00 2.08 1.45 65 1015.2
20180218144906 7 3 33.8 62.8 0.00 2.11 1.45 65 1015.2
20180218144406 7 22 25.7 41.8 0.00 2.11 1.45 66 1015.2
20180218143907 7 10 30.6 59.5 0.00 2.13 1.45 66 1015.1
20180218143407 7 21 24.1 56.3 0.00 2.13 1.45 66 1015.2
20180218141906 7 33 14.5 41.8 0.00 2.18 1.45 66 1015.2
20180218141406 7 34 24.1 51.5 0.00 2.21 1.45 66 1015.3
20180218140406 8 20 27.4 49.9 0.00 2.21 1.45 66 1015.2
20180218134406 8 50 25.7 45.1 0.00 2.24 1.45 65 1015.4
20180218133906 8 43 27.4 46.7 0.00 2.26 1.45 65 1015.5
20180218133406 8 46 30.6 51.5 0.00 2.26 1.45 65 1015.4
20180218131906 8 339 17.7 33.8 0.00 2.31 1.45 64 1015.4
20180218131406 8 28 19.3 41.8 0.00 2.31 1.45 65 1015.4
20180218130907 8 27 19.3 41.8 0.00 2.31 1.45 64 1015.4
20180218130406 8 12 20.9 45.1 0.00 2.34 1.45 64 1015.3
20180218123407 8 345 11.3 35.4 0.00 2.39 1.45 65 1015.3
20180218121906 9 50 14.5 29.0 0.00 2.41 1.45 65 1015.5
20180218121406 9 1 14.5 32.2 0.00 2.44 1.45 64 1015.6
20180218120906 9 67 11.3 25.7 0.00 2.44 1.45 65 1015.7
20180218120406 9 57 17.7 27.4 0.00 2.44 1.45 65 1015.7
20180218114906 8 43 9.7 22.5 0.00 2.44 1.45 68 1015.8
20180218113406 8 44 16.1 40.2 0.00 2.44 1.45 68 1015.8
20180218110906 8 29 24.1 33.8 0.00 2.44 1.45 70 1016.0
20180218110406 8 25 16.1 35.4 0.00 2.44 1.45 70 1016.0
20180218103905 8 14 8.0 27.4 0.00 2.44 1.45 75 1015.9
20180218103406 8 16 12.9 37.0 0.00 2.44 1.45 76 1015.8
20180218101906 7 44 12.9 33.8 0.00 2.44 1.45 92 1015.6
20180218101407 7 284 3.2 4.8 0.00 2.44 1.45 94 1015.6
20180218100906 7 256 0.0 1.6 0.00 2.44 1.45 94 1015.8
20180218100405 7 256 0.0 4.8 0.00 2.44 1.45 94 1015.7
20180218094406 7 216 1.6 16.1 0.00 2.44 1.45 94 1015.7
20180218093906 7 148 1.6 12.9 0.00 2.44 1.45 95 1015.6
20180218093405 7 126 4.8 11.3 0.00 2.44 1.45 95 1015.6
20180218091406 6 203 3.2 4.8 0.00 2.44 1.45 95 1015.7
20180218090905 6 185 3.2 4.8 0.00 2.44 1.45 95 1015.8
20180218084906 6 276 3.2 9.7 0.00 2.44 1.45 94 1015.9
20180218083906 6 226 4.8 14.5 0.00 2.44 1.45 95 1015.8
20180218083406 6 139 9.7 14.5 0.00 2.44 1.45 95 1015.7
20180218081906 6 209 3.2 4.8 0.00 2.44 1.45 96 1015.2
20180218081406 6 173 1.6 4.8 0.00 2.44 1.45 96 1015.2
20180218080906 6 147 1.6 8.0 0.00 2.44 1.45 96 1015.4
20180218080406 6 206 6.4 8.0 0.00 2.44 1.45 96 1015.2
20180218074906 5 85 3.2 4.8 0.00 2.44 1.45 96 1015.2
20180218074407 5 47 4.8 4.8 0.00 2.44 1.45 96 1015.3
20180218073906 5 89 1.6 1.6 0.00 2.44 1.45 96 1015.4
20180218073405 5 89 3.2 4.8 0.00 2.44 1.45 96 1015.4
20180218071905 6 167 0.0 3.2 0.00 2.44 1.45 96 1015.3
20180218070906 6 232 3.2 9.7 0.00 2.44 1.45 96 1015.2
20180218070406 6 247 4.8 8.0 0.00 2.44 1.45 95 1015.1
20180218064906 6 253 1.6 3.2 0.00 2.44 1.45 95 1014.9
20180218064406 6 253 3.2 4.8 0.00 2.44 1.45 95 1014.9
20180218063906 6 229 1.6 4.8 0.00 2.44 1.45 95 1014.9
20180218061906 6 206 6.4 8.0 0.03 2.44 1.45 95 1014.8
20180218060406 6 257 1.6 4.8 0.05 2.44 1.45 94 1014.7
20180218054905 6 64 1.6 4.8 0.13 2.44 1.45 93 1014.9
20180218053905 6 341 4.8 9.7 0.18 2.44 1.45 92 1014.9
20180218051905 7 210 4.8 9.7 0.25 2.41 1.45 91 1015.0
20180218050906 7 77 1.6 12.9 0.28 2.41 1.45 88 1014.8
20180218050405 7 66 9.7 24.1 0.30 2.39 1.42 88 1014.8
20180218044906 6 60 11.3 19.3 0.30 2.31 1.35 88 1015.2
20180218043905 7 69 12.9 29.0 0.28 2.26 1.27 86 1014.9
20180218043405 7 60 14.5 27.4 0.30 2.24 1.27 87 1014.9